Flag for U.S.A. Weather past 2 weeks in Mountain View, California, U.S.A.

Now
61 °F

Clear.


Feels Like: 61 °F
Forecast: 60 / 71 °F
Wind: No wind

Location: Moffett Field

Current Time: Sep 3, 2015 at 4:39:54 AM

Latest Report: Sep 3, 2015 at 3:56 AM


Visibility: 10 mi

Pressure: 29.93 "Hg

Humidity: 75%

Dew point: 53 °F

Location of Mountain ViewLocation

Historic Weather in Mountain View — Graph

°F

Mountain View temperature yesterday

Maximum temperature yesterday: 78 °F (at 2:56 PM)
Minimum temperature yesterday: 60 °F (at 6:56 AM)
Average temperature yesterday: 68 °F

Past Weeks' High & Low Weather Summary

 TemperatureHumidityPressure
High90 °F (Aug 28, 2:56 PM)90% (Aug 26, 1:56 AM)30.08 "Hg (Aug 26, 1:56 AM)
Low59 °F (Sep 1, 4:56 AM)26% (Aug 27, 1:56 PM)29.84 "Hg (Aug 28, 4:56 PM)
Average69 °F68%29.96 "Hg
* Reported Aug 19 2:56 AM — Sep 3 2:56 AM, Mountain View, Weather by CustomWeather, © 2015

Note: Actual official high and low records may vary slightly from our data, if they occured in-between our weather recording intervals... More about our weather records

Advertising

Mountain View weather history for previous 24 hours

 ConditionsComfort  
Time TempWeatherWind HumidityBarometerVisibility
2:56 AM
Thu, Sep 3
61 °FClear.No wind75%29.93 "Hg10 mi
1:56 AM63 °FClear.5 mph70%29.93 "Hg10 mi
12:56 AM65 °FClear.No wind66%29.94 "Hg10 mi
11:56 PM
Wed, Sep 2
64 °FClear.No wind68%29.94 "Hg10 mi
10:56 PM64 °FClear.No wind73%29.94 "Hg10 mi
9:56 PM65 °FClear.No wind70%29.95 "Hg10 mi
8:56 PM66 °FClear.5 mph70%29.94 "Hg10 mi
7:56 PM66 °FSunny.5 mph73%29.93 "Hg10 mi
6:56 PM69 °FSunny.8 mph63%29.92 "Hg10 mi
5:56 PM72 °FSunny.10 mph59%29.92 "Hg10 mi
4:56 PM73 °FSunny.13 mph57%29.92 "Hg10 mi
3:56 PM76 °FSunny.16 mph50%29.92 "Hg10 mi
2:56 PM78 °FSunny.17 mph46%29.93 "Hg10 mi
1:56 PM76 °FSunny.17 mph52%29.95 "Hg10 mi
12:56 PM76 °FSunny.12 mph50%29.96 "Hg10 mi
11:56 AM74 °FSunny.7 mph52%29.97 "Hg10 mi
11:03 AM72 °FScattered clouds.5 mph57%29.97 "Hg10 mi
10:56 AM72 °FPartly sunny.6 mph55%29.98 "Hg10 mi
9:56 AM68 °FOvercast.5 mph63%29.98 "Hg10 mi
8:56 AM65 °FPassing clouds.7 mph68%29.98 "Hg10 mi
7:56 AM61 °FPassing clouds.3 mph75%29.98 "Hg10 mi
6:56 AM60 °FPassing clouds.3 mph80%29.97 "Hg10 mi
5:56 AM61 °FClear.No wind78%29.95 "Hg10 mi
4:56 AM61 °FPassing clouds.No wind81%29.95 "Hg10 mi
Weather by CustomWeather, © 2015

See weather overviewHow to use our weather pages